QPF
0.00 0.00 0.00 0.00 0.00 0.00 0.00 0.00 0.00 0.00 0.01 0.01 0.02 0.01 0.01 0.00 0.00 0.00 0.00 0.00 0.00 0.01 0.02 0.03 0.04 0.05 0.06 0.04 0.02 0.01 0.00 0.00 0.00 0.00 0.00 0.00 0.00 0.00 0.00 0.00 0.00 0.00 0.00
0.00 0.00 0.00 0.00 0.00 0.00 0.00 0.00 0.00 0.00 0.00 0.01 0.02 0.02 0.01 0.00 0.00 0.00 0.00 0.00 0.00 0.01 0.02 0.03 0.04 0.05 0.05 0.03 0.01 0.00 0.00 0.00 0.00 0.00 0.00 0.00 0.00 0.00 0.00 0.00 0.00 0.00 0.00
0.00 0.00 0.00 0.00 0.00 0.00 0.00 0.00 0.00 0.00 0.00 0.01 0.02 0.01 0.01 0.00 0.00 0.00 0.00 0.00 0.00 0.01 0.01 0.01 0.02 0.02 0.01 0.01 0.00 0.00 0.00 0.00 0.00 0.00 0.00 0.00 0.00 0.00 0.00 0.00 0.00 0.00 0.00
0.00 0.00 0.00 0.00 0.00 0.00 0.00 0.00 0.00 0.00 0.00 0.01 0.02 0.01 0.00 0.00 0.00 0.00 0.00 0.00 0.00 0.00 0.00 0.00 0.00 0.00 0.00 0.00 0.00 0.00 0.00 0.00 0.00 0.00 0.00 0.00 0.00 0.00 0.00 0.00 0.00 0.00 0.01
0.00 0.00 0.00 0.00 0.00 0.00 0.00 0.00 0.00 0.00 0.00 0.01 0.01 0.01 0.00 0.00 0.00 0.00 0.00 0.00 0.00 0.00 0.00 0.00 0.00 0.00 0.00 0.00 0.00 0.00 0.00 0.00 0.00 0.00 0.00 0.00 0.00 0.00 0.00 0.00 0.00 0.00 0.01
0.00 0.00 0.00 0.00 0.00 0.00 0.00 0.00 0.00 0.00 0.00 0.01 0.01 0.00 0.00 0.00 0.00 0.00 0.00 0.00 0.00 0.00 0.00 0.00 0.00 0.00 0.00 0.00 0.00 0.00 0.00 0.00 0.00 0.00 0.00 0.00 0.00 0.00 0.00 0.00 0.00 0.00 0.00
0.00 0.00 0.00 0.00 0.00 0.00 0.00 0.00 0.00 0.00 0.00 0.00 0.00 0.00 0.00 0.00 0.01 0.01 0.00 0.00 0.00 0.00 0.00 0.00 0.00 0.00 0.00 0.00 0.00 0.00 0.00 0.00 0.00 0.00 0.00 0.00 0.00 0.00 0.00 0.01 0.01 0.01 0.01
0.00 0.00 0.00 0.00 0.00 0.00 0.00 0.00 0.00 0.00 0.00 0.00 0.00 0.00 0.00 0.00 0.01 0.01 0.01 0.00 0.00 0.00 0.00 0.00 0.00 0.00 0.00 0.00 0.00 0.00 0.00 0.00 0.00 0.00 0.00 0.00 0.00 0.00 0.00 0.01 0.02 0.02 0.03
0.00 0.00 0.00 0.00 0.00 0.00 0.00 0.00 0.00 0.00 0.00 0.00 0.00 0.00 0.00 0.00 0.00 0.01 0.01 0.00 0.00 0.00 0.00 0.00 0.00 0.00 0.00 0.00 0.00 0.00 0.00 0.00 0.00 0.00 0.00 0.00 0.00 0.00 0.00 0.01 0.01 0.02 0.02
0.00 0.00 0.00 0.00 0.00 0.00 0.00 0.00 0.00 0.00 0.00 0.00 0.00 0.00 0.00 0.00 0.00 0.00 0.00 0.00 0.00 0.00 0.00 0.00 0.00 0.00 0.00 0.00 0.00 0.00 0.00 0.00 0.00 0.00 0.00 0.00 0.00 0.00 0.00 0.00 0.00 0.00 0.01
0.00 0.00 0.00 0.00 0.00 0.00 0.01 0.00 0.00 0.00 0.00 0.00 0.00 0.00 0.00 0.00 0.00 0.00 0.00 0.00 0.00 0.00 0.00 0.00 0.00 0.00 0.00 0.00 0.00 0.00 0.00 0.00 0.00 0.00 0.00 0.00 0.00 0.00 0.00 0.00 0.00 0.00 0.00
0.00 0.00 0.00 0.00 0.00 0.00 0.00 0.00 0.00 0.00 0.00 0.00 0.00 0.00 0.00 0.00 0.00 0.00 0.00 0.00 0.00 0.00 0.00 0.00 0.00 0.00 0.00 0.00 0.00 0.00 0.00 0.00 0.00 0.00 0.00 0.00 0.00 0.00 0.00 0.00 0.00 0.00 0.00
0.00 0.00 0.00 0.00 0.00 0.00 0.00 0.00 0.00 0.00 0.00 0.00 0.00 0.00 0.00 0.00 0.00 0.00 0.00 0.00 0.00 0.00 0.00 0.00 0.00 0.00 0.00 0.00 0.00 0.00 0.00 0.00 0.00 0.00 0.00 0.00 0.00 0.00 0.00 0.00 0.00 0.00 0.00
0.00 0.00 0.00 0.00 0.00 0.00 0.00 0.00 0.00 0.00 0.00 0.00 0.00 0.00 0.00 0.00 0.00 0.00 0.00 0.00 0.00 0.00 0.00 0.00 0.00 0.00 0.00 0.00 0.00 0.00 0.00 0.00 0.00 0.00 0.00 0.00 0.00 0.00 0.00 0.00 0.00 0.00 0.00
0.00 0.00 0.00 0.00 0.00 0.00 0.00 0.00 0.00 0.00 0.00 0.00 0.00 0.00 0.00 0.00 0.00 0.00 0.00 0.00 0.00 0.00 0.00 0.00 0.00 0.00 0.00 0.00 0.00 0.00 0.00 0.00 0.00 0.00 0.00 0.00 0.00 0.00 0.00 0.00 0.00 0.00 0.00
0.00 0.00 0.00 0.00 0.00 0.00 0.00 0.00 0.00 0.00 0.00 0.00 0.00 0.00 0.00 0.00 0.00 0.00 0.00 0.00 0.00 0.00 0.00 0.00 0.00 0.00 0.00 0.00 0.00 0.00 0.00 0.00 0.00 0.00 0.00 0.00 0.00 0.00 0.00 0.00 0.00 0.00 0.00
0.00 0.00 0.00 0.00 0.00 0.00 0.00 0.00 0.00 0.00 0.00 0.00 0.00 0.00 0.00 0.00 0.00 0.00 0.00 0.00 0.00 0.00 0.00 0.00 0.00 0.00 0.00 0.00 0.00 0.00 0.00 0.00 0.00 0.00 0.00 0.00 0.00 0.00 0.00 0.00 0.00 0.00 0.00
0.00 0.00 0.00 0.00 0.00 0.00 0.00 0.00 0.00 0.00 0.00 0.00 0.01 0.00 0.00 0.00 0.00 0.00 0.00 0.00 0.00 0.00 0.00 0.00 0.00 0.00 0.00 0.00 0.00 0.00 0.00 0.00 0.00 0.00 0.00 0.00 0.00 0.00 0.00 0.00 0.00 0.00 0.00
0.00 0.00 0.00 0.00 0.00 0.00 0.00 0.00 0.00 0.00 0.01 0.01 0.01 0.01 0.01 0.00 0.00 0.00 0.00 0.00 0.00 0.00 0.00 0.00 0.00 0.00 0.00 0.00 0.00 0.00 0.00 0.00 0.00 0.00 0.00 0.00 0.00 0.00 0.00 0.00 0.00 0.00 0.00
0.00 0.00 0.00 0.00 0.00 0.00 0.00 0.01 0.00 0.01 0.02 0.03 0.02 0.02 0.02 0.01 0.01 0.01 0.01 0.00 0.00 0.00 0.00 0.00 0.00 0.00 0.00 0.00 0.00 0.00 0.00 0.00 0.00 0.00 0.00 0.00 0.00 0.00 0.00 0.00 0.00 0.00 0.00
0.00 0.00 0.00 0.00 0.00 0.00 0.00 0.00 0.00 0.01 0.02 0.04 0.05 0.04 0.04 0.04 0.04 0.02 0.01 0.00 0.00 0.00 0.00 0.00 0.00 0.00 0.00 0.00 0.00 0.00 0.00 0.00 0.00 0.00 0.00 0.00 0.00 0.00 0.00 0.00 0.00 0.00 0.00
0.00 0.00 0.00 0.00 0.00 0.00 0.00 0.00 0.00 0.00 0.02 0.03 0.04 0.05 0.07 0.07 0.06 0.03 0.02 0.01 0.00 0.00 0.00 0.00 0.00 0.00 0.00 0.00 0.00 0.00 0.00 0.00 0.00 0.00 0.00 0.00 0.00 0.00 0.00 0.00 0.00 0.00 0.00
0.00 0.00 0.00 0.00 0.00 0.00 0.00 0.00 0.00 0.00 0.01 0.01 0.02 0.05 0.06 0.08 0.07 0.04 0.03 0.01 0.01 0.00 0.00 0.00 0.00 0.00 0.00 0.00 0.00 0.00 0.00 0.00 0.00 0.00 0.00 0.00 0.00 0.00 0.00 0.00 0.00 0.00 0.00
0.00 0.00 0.00 0.00 0.00 0.00 0.00 0.00 0.00 0.00 0.00 0.01 0.03 0.05 0.06 0.06 0.06 0.05 0.03 0.01 0.01 0.00 0.00 0.00 0.00 0.00 0.00 0.00 0.00 0.00 0.00 0.00 0.00 0.00 0.00 0.00 0.00 0.00 0.00 0.00 0.00 0.00 0.00
0.00 0.00 0.00 0.00 0.00 0.00 0.00 0.00 0.00 0.00 0.00 0.01 0.02 0.03 0.04 0.04 0.04 0.03 0.03 0.01 0.01 0.00 0.00 0.00 0.00 0.00 0.00 0.00 0.00 0.00 0.00 0.00 0.00 0.00 0.00 0.00 0.00 0.00 0.00 0.00 0.00 0.00 0.00
0.00 0.00 0.00 0.00 0.00 0.00 0.00 0.00 0.00 0.00 0.00 0.01 0.02 0.02 0.03 0.03 0.03 0.02 0.02 0.01 0.01 0.00 0.00 0.00 0.00 0.00 0.00 0.00 0.00 0.00 0.00 0.00 0.00 0.00 0.00 0.00 0.00 0.00 0.00 0.00 0.00 0.00 0.00
MSLP
1010.23 1010.37 1010.57 1010.84 1011.17 1011.54 1011.92 1012.27 1012.59 1012.86 1013.11 1013.34 1013.59 1013.88 1014.19 1014.51 1014.81 1015.06 1015.22 1015.30 1015.32 1015.31 1015.30 1015.35 1015.48 1015.68 1015.94 1016.23 1016.50 1016.72 1016.89 1016.99 1017.04 1017.07 1017.09 1017.13 1017.17 1017.22 1017.24 1017.23 1017.19 1017.11 1017.02
1010.06 1010.27 1010.56 1010.92 1011.34 1011.77 1012.18 1012.54 1012.85 1013.10 1013.32 1013.55 1013.82 1014.14 1014.49 1014.84 1015.17 1015.42 1015.58 1015.64 1015.63 1015.59 1015.57 1015.62 1015.74 1015.94 1016.20 1016.48 1016.73 1016.92 1017.05 1017.11 1017.13 1017.14 1017.16 1017.20 1017.25 1017.31 1017.34 1017.33 1017.27 1017.18 1017.08
1009.80 1010.10 1010.49 1010.96 1011.47 1011.98 1012.44 1012.81 1013.11 1013.34 1013.55 1013.77 1014.05 1014.38 1014.76 1015.14 1015.48 1015.74 1015.89 1015.94 1015.92 1015.87 1015.84 1015.88 1016.00 1016.20 1016.45 1016.70 1016.91 1017.06 1017.15 1017.17 1017.16 1017.15 1017.16 1017.20 1017.26 1017.32 1017.36 1017.36 1017.31 1017.22 1017.12
1009.49 1009.88 1010.38 1010.96 1011.58 1012.16 1012.66 1013.06 1013.35 1013.57 1013.76 1013.97 1014.24 1014.58 1014.96 1015.36 1015.70 1015.97 1016.12 1016.17 1016.15 1016.10 1016.08 1016.13 1016.26 1016.45 1016.68 1016.90 1017.07 1017.17 1017.21 1017.19 1017.14 1017.11 1017.11 1017.15 1017.22 1017.28 1017.33 1017.34 1017.29 1017.22 1017.12
1009.17 1009.65 1010.25 1010.94 1011.64 1012.30 1012.85 1013.26 1013.55 1013.75 1013.92 1014.12 1014.37 1014.70 1015.08 1015.47 1015.82 1016.08 1016.24 1016.30 1016.30 1016.28 1016.29 1016.36 1016.50 1016.69 1016.90 1017.09 1017.21 1017.27 1017.25 1017.19 1017.11 1017.06 1017.05 1017.08 1017.14 1017.21 1017.26 1017.27 1017.24 1017.18 1017.10
1008.91 1009.46 1010.14 1010.91 1011.68 1012.39 1012.97 1013.40 1013.69 1013.88 1014.03 1014.21 1014.44 1014.75 1015.12 1015.49 1015.84 1016.10 1016.28 1016.36 1016.39 1016.41 1016.46 1016.56 1016.72 1016.91 1017.10 1017.25 1017.34 1017.34 1017.29 1017.19 1017.09 1017.02 1016.99 1017.02 1017.08 1017.14 1017.19 1017.20 1017.17 1017.12 1017.06
1008.76 1009.34 1010.07 1010.88 1011.70 1012.43 1013.03 1013.47 1013.75 1013.94 1014.08 1014.24 1014.46 1014.75 1015.10 1015.46 1015.79 1016.06 1016.25 1016.37 1016.44 1016.51 1016.60 1016.73 1016.91 1017.10 1017.28 1017.40 1017.44 1017.41 1017.32 1017.20 1017.08 1017.00 1016.98 1017.00 1017.05 1017.10 1017.14 1017.15 1017.12 1017.08 1017.03
1008.71 1009.31 1010.05 1010.87 1011.69 1012.42 1013.02 1013.45 1013.74 1013.93 1014.07 1014.23 1014.45 1014.73 1015.07 1015.41 1015.74 1016.01 1016.21 1016.35 1016.46 1016.57 1016.71 1016.87 1017.06 1017.25 1017.41 1017.50 1017.51 1017.45 1017.34 1017.21 1017.10 1017.02 1017.00 1017.03 1017.08 1017.13 1017.16 1017.15 1017.12 1017.08 1017.04
1008.77 1009.35 1010.06 1010.86 1011.65 1012.36 1012.93 1013.36 1013.65 1013.85 1014.02 1014.20 1014.43 1014.72 1015.05 1015.38 1015.70 1015.96 1016.17 1016.34 1016.48 1016.62 1016.78 1016.97 1017.17 1017.35 1017.49 1017.55 1017.55 1017.47 1017.36 1017.24 1017.14 1017.09 1017.09 1017.13 1017.19 1017.24 1017.26 1017.25 1017.21 1017.16 1017.12
1008.89 1009.42 1010.08 1010.82 1011.55 1012.22 1012.76 1013.18 1013.48 1013.72 1013.92 1014.14 1014.41 1014.71 1015.05 1015.38 1015.68 1015.94 1016.15 1016.33 1016.48 1016.65 1016.83 1017.02 1017.22 1017.39 1017.51 1017.56 1017.55 1017.47 1017.37 1017.27 1017.20 1017.19 1017.23 1017.30 1017.38 1017.44 1017.47 1017.45 1017.40 1017.35 1017.30
1008.98 1009.46 1010.07 1010.73 1011.39 1011.99 1012.50 1012.92 1013.24 1013.51 1013.77 1014.05 1014.36 1014.69 1015.04 1015.37 1015.67 1015.93 1016.13 1016.31 1016.47 1016.65 1016.84 1017.04 1017.23 1017.39 1017.50 1017.54 1017.52 1017.46 1017.38 1017.32 1017.30 1017.34 1017.42 1017.53 1017.64 1017.73 1017.76 1017.75 1017.70 1017.64 1017.58
1009.01 1009.43 1009.97 1010.55 1011.14 1011.68 1012.16 1012.56 1012.91 1013.23 1013.55 1013.89 1014.25 1014.62 1014.99 1015.34 1015.63 1015.88 1016.08 1016.26 1016.43 1016.61 1016.81 1017.01 1017.21 1017.36 1017.47 1017.52 1017.51 1017.46 1017.42 1017.40 1017.43 1017.52 1017.65 1017.81 1017.96 1018.07 1018.13 1018.13 1018.08 1018.01 1017.93
1008.90 1009.29 1009.76 1010.27 1010.79 1011.27 1011.72 1012.12 1012.50 1012.87 1013.24 1013.64 1014.05 1014.46 1014.86 1015.21 1015.51 1015.77 1015.97 1016.16 1016.35 1016.55 1016.76 1016.97 1017.17 1017.34 1017.45 1017.51 1017.52 1017.50 1017.49 1017.51 1017.59 1017.72 1017.90 1018.10 1018.28 1018.43 1018.52 1018.54 1018.50 1018.43 1018.34
1008.66 1009.01 1009.42 1009.88 1010.34 1010.78 1011.20 1011.61 1012.01 1012.42 1012.84 1013.29 1013.74 1014.18 1014.60 1014.97 1015.29 1015.56 1015.79 1016.01 1016.23 1016.46 1016.70 1016.94 1017.16 1017.35 1017.48 1017.55 1017.59 1017.60 1017.61 1017.66 1017.77 1017.93 1018.14 1018.37 1018.59 1018.77 1018.89 1018.94 1018.92 1018.86 1018.76
1008.30 1008.61 1008.98 1009.39 1009.81 1010.22 1010.63 1011.04 1011.46 1011.90 1012.36 1012.84 1013.32 1013.79 1014.22 1014.62 1014.97 1015.27 1015.55 1015.82 1016.09 1016.37 1016.66 1016.94 1017.20 1017.41 1017.57 1017.67 1017.72 1017.75 1017.78 1017.85 1017.96 1018.14 1018.36 1018.60 1018.84 1019.05 1019.20 1019.28 1019.29 1019.24 1019.14
1007.84 1008.12 1008.45 1008.83 1009.22 1009.62 1010.03 1010.46 1010.89 1011.35 1011.83 1012.33 1012.82 1013.30 1013.76 1014.18 1014.57 1014.93 1015.28 1015.62 1015.97 1016.32 1016.67 1017.01 1017.31 1017.55 1017.73 1017.85 1017.91 1017.95 1017.99 1018.05 1018.16 1018.32 1018.53 1018.77 1019.01 1019.23 1019.41 1019.52 1019.56 1019.54 1019.45
1007.33 1007.57 1007.87 1008.22 1008.60 1009.01 1009.44 1009.88 1010.35 1010.82 1011.32 1011.82 1012.31 1012.80 1013.27 1013.72 1014.16 1014.59 1015.02 1015.45 1015.89 1016.33 1016.75 1017.14 1017.48 1017.75 1017.95 1018.08 1018.15 1018.19 1018.22 1018.26 1018.35 1018.48 1018.66 1018.87 1019.10 1019.32 1019.51 1019.65 1019.72 1019.73 1019.66
1006.80 1007.00 1007.26 1007.60 1007.98 1008.41 1008.87 1009.35 1009.85 1010.35 1010.86 1011.36 1011.86 1012.34 1012.83 1013.31 1013.80 1014.30 1014.82 1015.35 1015.88 1016.40 1016.89 1017.34 1017.71 1018.00 1018.21 1018.34 1018.40 1018.43 1018.44 1018.46 1018.51 1018.61 1018.74 1018.92 1019.11 1019.32 1019.51 1019.66 1019.77 1019.81 1019.77
1006.27 1006.41 1006.64 1006.96 1007.35 1007.82 1008.33 1008.87 1009.43 1009.98 1010.51 1011.02 1011.51 1012.00 1012.49 1013.00 1013.54 1014.11 1014.71 1015.33 1015.95 1016.54 1017.08 1017.56 1017.95 1018.25 1018.46 1018.58 1018.64 1018.66 1018.66 1018.65 1018.67 1018.72 1018.81 1018.94 1019.09 1019.26 1019.44 1019.59 1019.71 1019.78 1019.78
1005.74 1005.81 1005.99 1006.30 1006.72 1007.24 1007.83 1008.45 1009.09 1009.70 1010.28 1010.81 1011.31 1011.80 1012.31 1012.84 1013.41 1014.03 1014.70 1015.38 1016.06 1016.71 1017.29 1017.78 1018.18 1018.48 1018.68 1018.79 1018.85 1018.86 1018.85 1018.84 1018.84 1018.85 1018.90 1018.97 1019.08 1019.20 1019.34 1019.47 1019.59 1019.67 1019.70
1005.19 1005.19 1005.32 1005.62 1006.07 1006.65 1007.34 1008.07 1008.81 1009.51 1010.16 1010.73 1011.26 1011.76 1012.27 1012.81 1013.40 1014.05 1014.76 1015.48 1016.20 1016.87 1017.47 1017.97 1018.36 1018.65 1018.84 1018.96 1019.02 1019.04 1019.05 1019.04 1019.03 1019.03 1019.04 1019.06 1019.10 1019.17 1019.25 1019.34 1019.43 1019.51 1019.55
1004.61 1004.54 1004.62 1004.91 1005.40 1006.07 1006.86 1007.72 1008.58 1009.39 1010.12 1010.76 1011.32 1011.84 1012.35 1012.88 1013.48 1014.14 1014.85 1015.59 1016.32 1017.00 1017.59 1018.09 1018.47 1018.75 1018.94 1019.07 1019.15 1019.21 1019.25 1019.27 1019.28 1019.27 1019.26 1019.23 1019.21 1019.20 1019.21 1019.23 1019.28 1019.32 1019.35
1004.02 1003.88 1003.93 1004.21 1004.73 1005.47 1006.37 1007.36 1008.36 1009.30 1010.14 1010.85 1011.45 1011.99 1012.50 1013.03 1013.61 1014.25 1014.95 1015.68 1016.40 1017.06 1017.65 1018.13 1018.51 1018.79 1018.99 1019.15 1019.27 1019.38 1019.46 1019.53 1019.57 1019.58 1019.55 1019.49 1019.41 1019.32 1019.24 1019.18 1019.15 1019.13 1019.13
1003.45 1003.26 1003.27 1003.54 1004.09 1004.90 1005.90 1007.01 1008.14 1009.20 1010.14 1010.94 1011.60 1012.16 1012.67 1013.18 1013.74 1014.36 1015.03 1015.73 1016.42 1017.06 1017.63 1018.11 1018.49 1018.78 1019.02 1019.21 1019.39 1019.55 1019.70 1019.83 1019.92 1019.95 1019.92 1019.83 1019.69 1019.52 1019.34 1019.18 1019.06 1018.97 1018.91
1002.95 1002.73 1002.70 1002.96 1003.52 1004.38 1005.46 1006.67 1007.90 1009.08 1010.12 1010.99 1011.70 1012.29 1012.81 1013.31 1013.85 1014.43 1015.07 1015.73 1016.40 1017.02 1017.58 1018.05 1018.44 1018.76 1019.03 1019.27 1019.51 1019.74 1019.95 1020.14 1020.27 1020.33 1020.30 1020.19 1020.00 1019.76 1019.50 1019.24 1019.02 1018.84 1018.71
1002.59 1002.34 1002.28 1002.52 1003.09 1003.96 1005.08 1006.36 1007.67 1008.93 1010.05 1010.99 1011.75 1012.37 1012.90 1013.40 1013.91 1014.47 1015.08 1015.72 1016.36 1016.97 1017.53 1018.00 1018.41 1018.75 1019.05 1019.34 1019.63 1019.91 1020.18 1020.41 1020.59 1020.67 1020.65 1020.53 1020.30 1020.01 1019.67 1019.34 1019.02 1018.75 1018.54
Thickness
5768 5767 5762 5760 5757 5755 5754 5752 5750 5749 5747 5745 5742 5740 5737 5735 5733 5732 5731 5730 5730 5731 5731 5731 5730 5729 5727 5725 5723 5721 5719 5717 5716 5716 5715 5715 5715 5715 5714 5714 5714 5715 5714
5770 5764 5760 5756 5754 5751 5749 5747 5746 5744 5742 5740 5738 5736 5733 5732 5730 5728 5727 5727 5726 5726 5726 5726 5725 5724 5722 5720 5718 5716 5715 5713 5713 5713 5712 5711 5711 5710 5710 5710 5710 5710 5710
5768 5761 5756 5753 5750 5747 5745 5743 5741 5739 5738 5736 5734 5732 5729 5727 5726 5724 5723 5722 5722 5721 5720 5720 5719 5718 5716 5715 5713 5712 5711 5710 5710 5710 5710 5709 5707 5707 5706 5706 5706 5706 5706
5764 5757 5753 5749 5745 5742 5740 5738 5736 5735 5733 5732 5730 5727 5725 5723 5721 5719 5718 5717 5717 5716 5715 5714 5713 5712 5711 5710 5709 5708 5707 5706 5706 5707 5708 5707 5705 5703 5702 5702 5702 5702 5702
5761 5755 5749 5745 5741 5738 5735 5733 5731 5730 5729 5727 5725 5723 5721 5719 5717 5715 5713 5712 5711 5711 5710 5709 5708 5707 5706 5705 5704 5704 5703 5702 5703 5703 5703 5703 5700 5699 5698 5697 5697 5697 5697
5758 5751 5744 5741 5737 5734 5731 5729 5727 5725 5724 5722 5720 5718 5716 5714 5712 5710 5708 5707 5706 5706 5705 5705 5704 5703 5702 5701 5700 5699 5698 5698 5699 5700 5701 5699 5696 5695 5694 5694 5693 5693 5693
5754 5747 5740 5737 5734 5730 5727 5725 5723 5721 5719 5717 5715 5713 5712 5710 5708 5706 5704 5702 5702 5701 5701 5700 5700 5699 5698 5697 5696 5695 5694 5694 5696 5697 5697 5694 5692 5690 5690 5690 5690 5689 5689
5750 5743 5736 5732 5729 5727 5724 5721 5718 5717 5715 5713 5711 5709 5707 5705 5704 5702 5700 5699 5697 5697 5696 5696 5695 5694 5693 5692 5691 5691 5691 5691 5692 5694 5692 5688 5687 5686 5686 5685 5685 5684 5684
5747 5739 5732 5728 5725 5723 5720 5718 5715 5713 5711 5708 5707 5705 5703 5701 5700 5699 5697 5695 5694 5693 5692 5691 5691 5690 5689 5688 5687 5687 5688 5688 5689 5689 5687 5683 5682 5681 5680 5680 5679 5678 5678
5742 5737 5730 5726 5723 5720 5717 5714 5712 5709 5707 5704 5702 5701 5699 5698 5696 5695 5693 5691 5690 5689 5688 5687 5686 5685 5685 5684 5684 5684 5684 5684 5684 5684 5680 5677 5676 5675 5674 5673 5672 5671 5670
5734 5733 5729 5726 5722 5718 5715 5711 5708 5706 5704 5701 5699 5697 5695 5694 5693 5691 5690 5688 5686 5685 5684 5683 5682 5682 5681 5680 5680 5680 5679 5679 5680 5677 5673 5671 5669 5668 5667 5665 5663 5662 5661
5725 5727 5728 5725 5721 5718 5714 5709 5706 5703 5700 5698 5696 5694 5693 5693 5691 5688 5686 5684 5683 5681 5680 5679 5679 5678 5677 5675 5675 5675 5674 5674 5673 5670 5666 5664 5663 5661 5659 5657 5655 5654 5653
5722 5723 5725 5724 5721 5717 5713 5708 5705 5702 5699 5697 5695 5693 5691 5690 5688 5684 5681 5679 5678 5677 5676 5675 5674 5674 5673 5671 5670 5669 5668 5667 5665 5662 5659 5657 5655 5653 5651 5648 5647 5645 5644
5722 5721 5722 5721 5718 5715 5711 5708 5705 5702 5699 5696 5695 5692 5690 5688 5685 5682 5679 5677 5675 5674 5673 5672 5670 5669 5668 5666 5664 5663 5661 5660 5658 5655 5651 5650 5647 5645 5642 5640 5638 5636 5635
5720 5720 5718 5717 5714 5711 5709 5706 5704 5701 5698 5696 5694 5691 5688 5685 5682 5680 5677 5675 5673 5670 5668 5666 5665 5663 5661 5659 5657 5656 5654 5653 5651 5648 5644 5641 5638 5635 5633 5631 5629 5627 5626
5718 5718 5718 5714 5711 5708 5705 5703 5701 5699 5696 5694 5690 5688 5685 5681 5678 5675 5673 5670 5667 5664 5662 5660 5657 5655 5653 5651 5649 5648 5646 5645 5643 5640 5636 5633 5629 5626 5623 5621 5620 5618 5616
5716 5717 5716 5714 5710 5706 5703 5700 5698 5696 5694 5691 5688 5684 5681 5678 5674 5670 5666 5663 5660 5657 5654 5652 5649 5647 5645 5643 5642 5640 5639 5636 5634 5632 5629 5624 5620 5616 5614 5612 5610 5608 5607
5714 5714 5714 5714 5710 5706 5701 5698 5696 5694 5691 5689 5685 5681 5677 5674 5670 5665 5660 5656 5653 5650 5646 5643 5641 5638 5635 5634 5632 5632 5631 5628 5626 5623 5621 5616 5612 5608 5604 5602 5600 5598 5596
5712 5712 5710 5711 5708 5705 5700 5696 5693 5690 5688 5686 5683 5679 5674 5670 5665 5660 5654 5650 5646 5642 5638 5635 5631 5629 5625 5623 5623 5623 5622 5620 5618 5615 5612 5608 5603 5600 5596 5593 5590 5588 5586
5711 5711 5709 5708 5706 5702 5698 5693 5689 5686 5684 5682 5679 5676 5671 5666 5661 5655 5649 5644 5639 5634 5629 5626 5621 5618 5615 5614 5615 5615 5613 5612 5609 5606 5602 5599 5595 5591 5587 5584 5581 5577 5574
5705 5706 5706 5703 5703 5699 5693 5688 5683 5678 5676 5674 5673 5671 5666 5660 5655 5649 5643 5637 5632 5627 5622 5619 5614 5608 5604 5604 5604 5603 5603 5602 5600 5597 5593 5589 5586 5582 5578 5574 5570 5566 5563
5698 5700 5700 5699 5698 5696 5692 5687 5681 5673 5667 5665 5664 5661 5658 5653 5647 5641 5636 5630 5626 5620 5615 5610 5607 5600 5595 5594 5592 5591 5589 5588 5587 5588 5583 5579 5575 5571 5567 5563 5559 5555 5551
5690 5692 5693 5693 5692 5690 5687 5680 5670 5661 5655 5651 5650 5648 5646 5642 5638 5633 5628 5623 5618 5613 5607 5602 5598 5594 5586 5583 5581 5578 5575 5572 5570 5573 5572 5569 5564 5559 5555 5551 5547 5542 5538
5684 5685 5686 5686 5685 5684 5681 5674 5666 5659 5652 5647 5643 5638 5635 5632 5628 5625 5620 5615 5610 5605 5599 5594 5589 5585 5580 5574 5570 5567 5563 5559 5554 5552 5555 5556 5553 5548 5543 5540 5535 5530 5526
5674 5676 5678 5678 5677 5676 5674 5669 5661 5654 5647 5639 5633 5628 5625 5621 5619 5616 5612 5607 5602 5596 5590 5585 5580 5575 5571 5566 5561 5557 5553 5548 5543 5536 5534 5536 5536 5533 5530 5526 5523 5519 5515
5662 5663 5666 5668 5667 5666 5663 5660 5654 5647 5639 5631 5625 5620 5616 5612 5610 5607 5603 5599 5594 5588 5581 5575 5570 5565 5561 5556 5551 5546 5541 5536 5531 5525 5521 5520 5519 5519 5516 5513 5510 5507 5502